Location: Newark
(34.9500°N, 139.9667°E)
Time: 20:58:24
(UTC+00:00)

Vanguard 2 Rocket - Pass Details

Date: 14 December 2019
Orbit: 554 x 3326 km, 32.9° (Epoch: 25 January)

Event Time Altitude Azimuth Distance (km) Brightness Sun altitude
Rises 03:16:26 0° 192° (SSW) 7,147 12.6 31.0°
Reaches altitude 10° 03:23:39 10° 177° (S) 6,266 12.5 30.7°
Maximum altitude 03:35:36 19° 140° (SE) 5,365 11.4 30.1°
Drops below altitude 10° 03:46:15 10° 103° (ESE) 5,609 10.9 29.4°
Sets 03:51:56 0° 87° (E) 6,202 10.9 29.0°
